Flag for U.S.A. Weather past 2 weeks in Sioux Falls, South Dakota, U.S.A.

27 °F


Feels Like: 27 °F
Forecast: 18 / 31 °F
Wind: No wind

Location: Foss Field

Current Time: Nov 28, 2015 at 9:47:34 PM

Latest Report: Nov 28, 2015 at 8:56 PM

Visibility: 10 mi

Pressure: 30.45 "Hg

Humidity: 69%

Dew point: 18 °F

Location of Sioux FallsLocation

Historic Weather in Sioux Falls — Graph


Sioux Falls temperature yesterday

Maximum temperature yesterday: 27 °F (at 2:56 PM)
Minimum temperature yesterday: 12 °F (at 11:56 PM)
Average temperature yesterday: 19 °F

Past Weeks' High & Low Weather Summary

High61 °F (Nov 14, 3:56 PM)100% (Nov 25, 10:00 AM)30.71 "Hg (Nov 25, 10:00 AM)
Low5 °F (Nov 22, 2:56 AM)24% (Nov 19, 3:56 PM)29.15 "Hg (Nov 18, 12:56 PM)
Average33 °F76%30.03 "Hg
* Reported Nov 13 7:56 PM — Nov 28 7:56 PM, Sioux Falls, Weather by CustomWeather, © 2015

Note: Actual official high and low records may vary slightly from our data, if they occured in-between our weather recording intervals... More about our weather records


Sioux Falls weather history for previous 24 hours

Time TempWeatherWind HumidityBarometerVisibility
7:56 PM
Sat, Nov 28
25 °FPassing clouds.No wind72%30.45 "Hg10 mi
6:56 PM25 °FPassing clouds.No wind72%30.45 "Hg10 mi
5:56 PM22 °FPassing clouds.3 mph75%30.47 "Hg10 mi
4:56 PM24 °FPassing clouds.6 mph65%30.47 "Hg10 mi
3:56 PM27 °FPassing clouds.8 mph45%30.46 "Hg10 mi
2:56 PM30 °FPassing clouds.No wind41%30.44 "Hg10 mi
1:56 PM28 °FPassing clouds.3 mph47%30.46 "Hg10 mi
12:56 PM26 °FPassing clouds.8 mph52%30.50 "Hg10 mi
11:56 AM25 °FPassing clouds.7 mph60%30.51 "Hg10 mi
10:56 AM23 °FPassing clouds.5 mph68%30.53 "Hg10 mi
9:56 AM20 °FPassing clouds.No wind89%30.54 "Hg10 mi
8:56 AM13 °FPassing clouds.No wind96%30.56 "Hg10 mi
7:56 AM8 °FPassing clouds.No wind91%30.55 "Hg10 mi
6:56 AM9 °FPassing clouds.3 mph84%30.55 "Hg10 mi
5:56 AM9 °FPassing clouds.No wind84%30.54 "Hg10 mi
4:56 AM9 °FPassing clouds.No wind88%30.54 "Hg10 mi
3:56 AM9 °FClear.No wind88%30.56 "Hg10 mi
2:56 AM9 °FClear.No wind84%30.58 "Hg10 mi
1:56 AM11 °FClear.No wind84%30.58 "Hg10 mi
12:56 AM11 °FClear.No wind88%30.60 "Hg10 mi
11:56 PM
Fri, Nov 27
12 °FClear.No wind88%30.61 "Hg10 mi
10:56 PM15 °FClear.No wind80%30.62 "Hg10 mi
9:56 PM17 °FClear.3 mph76%30.61 "Hg10 mi
Weather by CustomWeather, © 2015

See weather overviewHow to use our weather pages